Weather History for GMMZ - February, 2013

Change the Weather History Date:

Friday, February 8, 2013

  Actual Average Record
Temperature  
Mean Temperature 52 °F -  
Max Temperature 68 °F 68 °F - ()
Min Temperature 35 °F 41 °F - ()
Degree Days  
Heating Degree Days 14    
Growing Degree Days 2 (Base 50)    
Moisture  
Dew Point 6 °F    
Average Humidity 15    
Maximum Humidity 28    
Minimum Humidity 4    
Precipitation  
Precipitation 0.00 in 0.02 in - ()
Sea Level Pressure  
Sea Level Pressure 30.08 in    
Wind  
Wind Speed 4 mph ()    
Max Wind Speed 20 mph    
Max Gust Speed -    
Visibility 12.0 miles    
Events      
T = Trace of Precipitation, MM = Missing Value Source: Averaged Metar Reports

Daily Weather History Graph

Daily Weather History Graph

Search for Another Location

Airport or City:

Trip Planner

Search our weather history database for the weather conditions in past years. The results will help you decide how hot, cold, wet, or windy it might be!

Date:

Astronomy

Feb. 08, 2013 Rise Set
Actual Time 7:14 AM WET 6:09 PM WET
Civil Twilight 6:49 AM WET 6:34 PM WET
Nautical Twilight 6:20 AM WET 7:03 PM WET
Astronomical Twilight 5:52 AM WET 7:31 PM WET
Moon 5:28 AM WET (2/8) 4:29 PM WET (2/8)
Length of Visible Light 11h 45m
Length of Day
10h 55m
Waning Crescent, 4% of the Moon is Illuminated
Feb 8
Waning Crescent
Feb 10
New
Feb 17
First Quarter
Feb 25
Full
Mar 4
Last Quarter

Hourly Weather History & Observations

Time (WET) Temp. Windchill Dew Point Humidity Pressure Visibility Wind Dir Wind Speed Gust Speed Precip Events Conditions
12:00 AM 50 °F - 9 °F 9%  in 12 mi NE 4.6 mph - -   Clear
12:00 AM 50.0 °F - 8.6 °F 19% 30.15 in - NE 4.6 mph - N/A   Clear
1:00 AM 48.2 °F - 8.6 °F 20% 30.15 in - Variable 1.2 mph - N/A   Clear
2:00 AM 48.2 °F - 8.6 °F 20% 30.15 in - Calm Calm - N/A   Clear
3:00 AM 45 °F - 8 °F 11%  in 12 mi West 4.6 mph - -   Clear
3:00 AM 44.6 °F 42.2 °F 8.6 °F 23% 30.15 in - West 4.6 mph - N/A   Clear
4:00 AM 42.8 °F - 8.6 °F 25% 30.15 in - Variable 1.2 mph - N/A   Clear
5:00 AM 41.0 °F - 8.6 °F 26% 30.12 in - Calm Calm - N/A   Clear
6:00 AM 37 °F - 5 °F 14%  in 12 mi West 1.2 mph - -   Clear
6:00 AM 37.4 °F - 5.0 °F 26% 30.12 in - Variable 1.2 mph - N/A   Clear
7:00 AM 35.6 °F - 5.0 °F 28% 30.12 in - Variable 1.2 mph - N/A   Clear
8:00 AM 39.2 °F - 6.8 °F 26% 30.12 in - Calm Calm - N/A   Clear
10:00 AM 48.2 °F - 10.4 °F 22% 30.15 in - Variable 3.5 mph - N/A   Clear
11:00 AM 53.6 °F - 12.2 °F 19% 30.12 in - Variable 2.3 mph - N/A   Clear
12:00 PM 57 °F - 14 °F 9%  in 12 mi Calm Calm - -   Clear
12:00 PM 57.2 °F - 14.0 °F 18% 30.09 in - Calm Calm - N/A   Clear
1:00 PM 60.8 °F - 15.8 °F 17% 30.06 in - Variable 1.2 mph - N/A   Clear
2:00 PM 64.4 °F - 15.8 °F 15% 30.01 in - Variable 1.2 mph - N/A   Clear
3:00 PM 66 °F - 12 °F 5%  in 12 mi WNW 2.3 mph - -   Clear
3:00 PM - - - N/A% - - Variable 2.3 mph - N/A   Clear
4:00 PM 66.2 °F - 8.6 °F 11% 29.98 in - Variable 2.3 mph - N/A   Clear
5:00 PM 66.2 °F - -5.8 °F 5% 29.98 in - WNW 19.6 mph - N/A   Clear
6:00 PM 64 °F - -4 °F 4%  in 12 mi WNW 11.5 mph - -   Clear
6:00 PM 64.4 °F - -0.4 °F 7% 30.01 in - WNW 11.5 mph - N/A   Clear
7:00 PM 60.8 °F - 3.2 °F 10% 30.01 in - WNW 16.1 mph - N/A   Clear
8:00 PM 57.2 °F - 1.4 °F 10% 30.01 in - WNW 11.5 mph - N/A   Clear
9:00 PM 53 °F - -0 °F 4%  in 12 mi West 9.2 mph - -   Clear
9:00 PM 53.6 °F - -0.4 °F 11% 30.01 in - West 9.2 mph - N/A   Clear
10:00 PM 55.4 °F - -5.8 °F 8% 30.04 in - West 9.2 mph - N/A   Clear
11:00 PM 51.8 °F - -5.8 °F 9% 30.04 in - West 10.4 mph - N/A   Clear